Location: Aalen
(48.8330°N, 10.1000°E)
Time: 04:39:00
(UTC+01:00)

Envisat - Pass Details

Date: 05 December 2022
Orbit: 763 x 765 km, 98.2° (Epoch: 28 January)

Event Time Altitude Azimuth Distance (km) Brightness Sun altitude
Rises 17:03:45 0° 215° (SW) 3,221 7.5 -6.5°
Reaches altitude 10° 17:07:03 10° 238° (WSW) 2,302 7.3 -7.0°
Maximum altitude 17:09:56 15° 273° (W) 1,974 6.2 -7.4°
Drops below altitude 10° 17:12:50 10° 308° (NW) 2,312 5.9 -7.8°
Sets 17:16:11 0° 331° (NNW) 3,245 6.3 -8.3°
